CW3742 Weather Reports


time (UTC)temp
C
wind
direction
speed
KPH
gust
KPH
rain 1hr
cm
rain 24hr
cm
rain mn
cm
humidity
%
barometer
mb
20260831123017 25 203 16.1 30.6 0.00 0.00 0.00 71 994.1
20260831120017 25 203 16.1 33.8 0.00 0.00 0.00 71 993.9
20260831113039 25 203 14.5 30.6 0.00 0.00 0.00 71 993.8
20260831110017 25 203 14.5 27.4 0.00 0.00 0.00 72 993.8
20260831103019 24 180 11.3 20.9 0.00 0.00 0.00 75 993.9
20260831100017 24 180 12.9 22.5 0.00 0.00 0.00 75 993.8
20260831093017 23 180 9.7 17.7 0.00 0.00 0.00 77 993.9
20260831090017 23 180 9.7 17.7 0.00 0.00 0.00 79 993.8
20260831083352 23 180 9.7 16.1 0.00 0.00 0.00 80 993.6
20260831073017 23 158 9.7 17.7 0.00 0.00 0.00 78 993.5
20260831070017 24 158 9.7 17.7 0.00 0.00 0.00 77 993.6
20260831063017 24 180 9.7 17.7 0.00 0.00 0.00 77 993.7
20260831060017 25 158 9.7 22.5 0.00 0.00 0.00 77 993.9
20260831053017 25 158 11.3 17.7 0.00 0.00 0.00 76 993.9
20260831050038 25 158 12.9 22.5 0.00 0.00 0.00 76 993.7
20260831043017 25 158 12.9 22.5 0.00 0.00 0.00 76 993.9
20260831040017 25 158 12.9 20.9 0.00 0.00 0.00 77 994.1
20260831033017 25 158 11.3 20.9 0.00 0.00 0.00 78 994.2
20260831030017 26 135 9.7 17.7 0.00 0.00 0.00 80 994.2
20260831023019 26 135 8.0 17.7 0.00 0.00 0.00 80 994.2
20260831020017 26 135 8.0 14.5 0.00 0.00 0.00 81 994.0
20260831013039 26 135 9.7 14.5 0.00 0.00 0.00 83 993.5
20260831010017 27 135 9.7 17.7 0.00 0.00 0.00 81 993.3
20260831003017 27 113 8.0 17.7 0.00 0.00 0.00 79 993.4
20260831000017 29 135 9.7 17.7 0.00 0.00 0.00 75 993.5
20260830233018 30 135 11.3 17.7 0.00 0.00 0.00 73 993.9
20260830230017 30 135 11.3 20.9 0.00 0.00 0.00 71 993.5
20260830223017 30 135 11.3 24.1 0.00 0.00 0.00 67 993.4
20260830220017 30 135 12.9 22.5 0.00 0.00 0.00 70 993.6
20260830213017 31 135 12.9 29.0 0.00 0.00 0.00 64 993.9
20260830210019 29 113 9.7 20.9 0.00 0.00 0.00 77 994.3
20260830203017 28 90 9.7 19.3 0.00 0.00 0.00 77 994.9
20260830200017 28 113 6.4 17.7 0.00 0.00 0.00 78 995.2
20260830193019 27 113 9.7 19.3 0.00 0.00 0.00 81 994.6
20260830190038 25 135 6.4 14.5 0.00 0.00 0.00 83 995.1
20260830183017 26 158 4.8 12.9 0.00 0.00 0.00 80 995.4
20260830180017 26 158 8.0 16.1 0.00 0.00 0.00 76 995.0
20260830173038 26 180 12.9 29.0 0.00 0.00 0.00 72 995.1
20260830170018 27 203 12.9 29.0 0.00 0.00 0.00 70 994.8
20260830163017 26 180 12.9 22.5 0.00 0.00 0.00 72 994.9
20260830160017 26 180 12.9 25.7 0.00 0.00 0.00 71 995.2
20260830153017 25 180 9.7 22.5 0.00 0.00 0.00 72 995.0
20260830150018 23 225 8.0 16.1 0.00 0.00 0.00 75 995.5
20260830143018 23 203 11.3 30.6 0.00 0.00 0.00 74 995.0
20260830140018 24 203 16.1 27.4 0.00 0.00 0.00 69 994.1
20260830133017 24 203 14.5 30.6 0.00 0.00 0.00 70 994.2
20260830130018 23 203 14.5 29.0 0.00 0.00 0.00 70 994.4